Find OneWeb SL0592

NORAD ID: 54658 Int'l Des: 2022-166 Owner: ONEWEBN Country: UK Constellation: oneweb operational
別名: ONEWEB-0592 spacetrack, celestrak
LEOCIRCULARPOLARONEWEB_TYPE

現在のビュー

3D地球を読み込み中...

About OneWeb SL0592

OneWeb SL0592 (NORAD 54658) is a oneweb constellation satellite launched Dec 8, 2022 by ONEWEBN of UK. It operates in LEO, CIRCULAR, POLAR, ONEWEB_TYPE orbit with a mass of 148.00 kg.

次回通過

Passes for default location (London). Set your location on the main map for personalized predictions.

高度履歴

Loading altitude history...

軌道要素

1 54658U 22166S 26264.22025449 -.00001323 00000-0 -32349-2 0 9997
2 54658 87.9288 224.8564 0002007 79.9575 280.1785 13.21812578184129
Epoch: Sep 21, 2026 • Age: 10 hours

現在のステータス

高度 1191.2 km
遠地点 / 近地点 N/A
速度 7.26 km/s
衛星直下点 -32.74°S, 173.96°E
打ち上げ日 Dec 8, 2022
運用期間 3.7 years
タイプ internet

技術仕様

分類 Payload
質量 148.00 kg
乾燥質量 140.00 kg
長さ 1.30 m
直径 1.00 m
スパン 5.00 m
形状 ? Trapezoid+2 pan
製造者 ONEWUS
バスタイプ ARROW
フェーズステータス In Orbit
所有者/国 ONEWEBN/UK

Most Searched